Regional Weather Roundup
Issued by NWS

Home | Current Version | Previous Version | Graphics & Text | Print | Product List | Glossary On
Versions: 1 2 3 4 5 6 7 8 9 10 11 12 13 14 15 16 17 18 19 20 21 22 23 24 25 26 27 28 29 30 31 32 33 34 35 36 37 38 39 40 41 42 43 44 45 46 47 48 49 50
000
ASUS45 KCYS 020210
RWRWY

WYOMING REGIONAL WEATHER ROUNDUP
NATIONAL WEATHER SERVICE CHEYENNE WY
800 PM MDT WED JUL 01 2015

NOTE:  "FAIR" INDICATES FEW OR NO CLOUDS BELOW 12,000 FEET
WITH NO SIGNIFICANT WEATHER AND/OR OBSTRUCTIONS TO VISIBILITY.

WYZ001-020300-
YELLOWSTONE NATIONAL PARK

CITY           SKY/WX    TMP DP  RH WIND       PRES   REMARKS
LK YELLOWSTONE   N/A     76  31  19 VRB5      30.31R
W YELLOWSTONE  NOT AVBL

$$
WYZ002>013-054>058-071-098>099-020300-
NORTHERN WYOMING

CITY           SKY/WX    TMP DP  RH WIND       PRES   REMARKS
JACKSON        FAIR      81  41  24 W7        30.18S
CODY           FAIR      82  48  30 N10       30.08S
GREYBULL       FAIR      90  45  21 N21G29    29.95R
WORLAND        FAIR      84  59  42 N7        29.95R
SHERIDAN       FAIR      78  60  53 W7        30.00R
BUFFALO        FAIR      78  55  44 NW8       30.07F
GILLETTE       FAIR      75  55  49 E5        30.02F
HULETT         FAIR      73  59  60 E7        30.04S
NEWCASTLE      FAIR      79  50  36 CALM      30.02F

$$
WYZ014>020-022>026-101>103-020300-
CENTRAL WYOMING

CITY           SKY/WX    TMP DP  RH WIND       PRES   REMARKS
BIG PINEY      FAIR      80  44  27 NW16      30.22R
PINEDALE       FAIR      77  43  29 NW14      30.22R
DUBOIS         FAIR      79  34  19 NW16G22   30.21S
LANDER         FAIR      83  53  35 VRB3      30.05R
RIVERTON       FAIR      86  47  25 NE8       30.05R
CASPER         MOCLDY    76  54  46 SE5       30.05S
DOUGLAS        FAIR      79  53  40 E12       30.04S

$$
WYZ021-027>030-104>119-020300-
SOUTHERN WYOMING

CITY           SKY/WX    TMP DP  RH WIND       PRES   REMARKS
EVANSTON       FAIR      80  40  23 NW14      30.24R
KEMMERER       FAIR      79  41  25 NW15G21   30.25S
FORT BRIDGER   CLEAR     82  41  23 NW12      30.25R
ROCK SPRINGS   MOCLDY    83  42  23 NW10      30.14S
DIXON          LGT RAIN  67  55  66 E16       30.22R
RAWLINS        FAIR      66  55  67 SE8       30.21S
SARATOGA       FAIR      63  54  72 S18G26    30.23F
LARAMIE        LGT RAIN  61  56  83 SE9       30.29S
CHEYENNE       MOCLDY    62  56  80 S7        30.19F
TORRINGTON     MOCLDY    72  61  68 E7        30.04R
PINE BLUFFS    MOCLDY    68  52  56 SW18G31   30.09F

$$



USA.gov is the U.S. government's official web portal to all federal, state and local government web resources and services.